Regional Weather Roundup
Issued by NWS Albany, NY

Home | Current Version | Previous Version | Text Only | Print | Product List | Glossary On
Versions: 1 2 3 4 5 6 7 8 9 10 11 12 13 14 15 16 17 18 19 20 21 22 23 24 25 26 27 28 29 30 31 32 33 34 35 36 37 38 39 40 41 42 43 44 45 46 47 48 49 50
702
ASUS41 KALY 260610
RWRALY

NEW YORK STATE HOURLY WEATHER ROUNDUP
NATIONAL WEATHER SERVICE ALBANY NY
200 AM EDT TUE JUL 26 2016

NOTE: "FAIR" INDICATES FEW OR NO CLOUDS BELOW 12,000 FEET WITH NO
SIGNIFICANT WEATHER AND/OR NO OBSTRUCTIONS TO VISIBILITY.

NYZ032-033-038>043-046>054-057>066-NYZ062>081-082-084-260700-
EAST


CITY           SKY/WX    TMP DP  RH WIND       PRES   REMARKS
ALBANY         CLOUDY    73  69  87 CALM      29.84S
GLENS FALLS    CLEAR     70  67  90 CALM      29.80F
POUGHKEEPSIE   PTCLDY    72  68  87 CALM      29.85S
NEWBURGH       PTCLDY    70  70 100 W9        29.89F
MONTGOMERY     CLEAR     69  68  96 SW6       29.87F
WHITE PLAINS   PTCLDY    72  69  90 W6        29.86F
ISLIP          CLEAR     73  72  96 W9        29.84S
NEW YORK CITY  PTCLDY    77  71  82 W9        29.86S
CENTRAL PARK   CLEAR     73  71  93 W6        29.89F
$$

NYZ005>009-017-018-044>046-055-056-260700-
CENTRAL


CITY           SKY/WX    TMP DP  RH WIND       PRES   REMARKS
FULTON         CLEAR     71  66  84 CALM      29.86F
SYRACUSE       PTCLDY    70  70 100 SW5       29.86S
ROME           CLEAR     69  69 100 N3        29.86F
ELMIRA         CLOUDY    68  66  93 W5        29.93S
BINGHAMTON     FOG       67  66  97 W5        29.94S VSB 1/2
MONTICELLO     MOCLDY    66  64  94 W5        29.94S
$$

NYZ026>034-041>043-087-260700-
NORTH


CITY           SKY/WX    TMP DP  RH WIND       PRES   REMARKS
WATERTOWN      PTCLDY    73  62  68 W9        29.83S
FORT DRUM      NOT AVBL
MASSENA        CLEAR     68  64  87 SW6       29.77S
SARANAC LAKE   CLEAR     67  63  87 SW8       29.84S
PLATTSBURGH    CLEAR     73  66  78 VRB5      29.74S
$$

NYZ001>004-010>016-019>021-085-260700-
WEST


CITY           SKY/WX    TMP DP  RH WIND       PRES   REMARKS
NIAGARA FALLS  CLEAR     73  61  65 NW8       29.92R
BUFFALO        CLEAR     73  62  68 NW7       29.93R
DUNKIRK        MOCLDY    73  70  90 SW5       29.94R
JAMESTOWN      PTCLDY    66  64  94 SW7       29.99S
WELLSVILLE     CLEAR     68  65  90 W7        30.01S
ROCHESTER      PTCLDY    71  68  90 W5        29.91R
PENN YAN       CLEAR     73  67  81 S9        29.92S
$$

             KEY
       WCI = WIND CHILL INDEX
       VSB = VISIBILITY
       HX  = HEAT INDEX
$$




USA.gov is the U.S. government's official web portal to all federal, state and local government web resources and services.